Location: Nianha
(10.8000°N, 4.6333°W)
Time: 14:38:34
(UTC+00:00)

Meteor 2-10 Rocket - Pass Details

Date: 14 November 2019
Orbit: 734 x 884 km, 81.2° (Epoch: 17 January)

Event Time Altitude Azimuth Distance (km) Brightness Sun altitude
Exits shadow 04:29:02 15° 2° (N) 2,114 5.6 -25.5°
Maximum altitude 04:33:41 70° 85° (E) 908 3.9 -24.4°
Drops below altitude 10° 04:39:24 10° 168° (SSE) 2,520 6.5 -23.0°
Sets 04:41:53 0° 170° (S) 3,468 7.2 -22.4°
